Home > Time Zones > World Clock > Weather > Iran > Tabriz > Past weeks

Flag for Iran Weather past 2 weeks in Tabriz, Iran

Now
34 °F

Fog.


Feels Like: 34 °F
Forecast: 24 / 49 °F
Wind: 2 mph from North

Location: Tabriz Airport

Current Time: Jan 31, 2015 at 11:18:17 AM

Latest Report: Jan 31, 2015 at 10:30 AM


Visibility: 2 mi

Pressure: 30.15 "Hg

Humidity: 93%

Dew point: 32 °F

Location of TabrizLocation

Historic Weather in Tabriz — Graph

°F

Tabriz temperature yesterday

Maximum temperature yesterday: 50 °F (at 2:30 PM)
Minimum temperature yesterday: 28 °F (at 2:30 AM)
Average temperature yesterday: 38 °F

Past Weeks' High & Low Weather Summary

 TemperatureHumidityPressure
High50 °F (Jan 27, 2:00 PM)100% (Jan 28, 10:30 PM)30.33 "Hg (Jan 28, 10:30 PM)
Low21 °F (Jan 19, 6:50 AM)32% (Jan 26, 3:30 PM)29.83 "Hg (Jan 29, 2:30 AM)
Average35 °F65%30.16 "Hg
* Reported Jan 16 9:30 AM — Jan 31 9:50 AM, Tabriz, Weather by CustomWeather, © 2014

Note: Actual official high and low records may vary slightly from our data, if they occured in-between our weather recording intervals... More about our weather records

Advertising

Tabriz weather history for previous 24 hours

 ConditionsComfort  
Time TempWeatherWind HumidityBarometerVisibility
9:50 AM
Jan 31
34 °FFog.No wind87%30.15 "Hg2 mi
9:30 AM34 °FFog.No wind93%30.15 "Hg2 mi
9:00 AM34 °FFog.No wind93%30.12 "Hg2 mi
8:30 AM32 °FIce fog.No wind93%30.12 "Hg1 mi
8:00 AM30 °FIce fog.No wind100%30.12 "Hg1 mi
7:30 AM32 °FIce fog.No wind93%30.09 "Hg1 mi
6:30 AM32 °FIce fog.No wind100%30.07 "Hg1 mi
6:00 AM32 °FIce fog.No wind100%30.07 "Hg2 mi
5:30 AM32 °FLight snow. Ice fog.No wind100%30.04 "Hg1 mi
5:00 AM32 °FLight snow. Ice fog.No wind100%30.04 "Hg1 mi
4:30 AM32 °FLight snow. Ice fog.No wind100%30.04 "Hg1 mi
4:00 AM32 °FSnow. Ice fog.5 mph100%30.01 "Hg1 mi
3:20 AM32 °FSnow. Ice fog.5 mph100%30.01 "Hg1 mi
3:00 AM32 °FSnow. Ice fog.5 mph100%30.01 "Hg1 mi
2:30 AM32 °FSnow. Ice fog.7 mph100%30.01 "Hg1 mi
2:00 AM32 °FLight snow. Ice fog.5 mph100%29.98 "Hg1 mi
1:30 AM34 °FLight rain. Fog.2 mph93%29.98 "Hg2 mi
1:00 AM34 °FLight rain. Fog.2 mph93%29.98 "Hg2 mi
12:30 AM34 °FSprinkles. Overcast.5 mph93%29.98 "Hg2 mi
12:00 AM36 °FRain. Overcast.9 mph87%29.98 "Hg2 mi
11:30 PM
Jan 30
37 °FSprinkles. Overcast.9 mph87%29.98 "Hg3 mi
11:00 PM39 °FScattered showers. Overcast.7 mph75%29.98 "Hg4 mi
10:30 PM39 °FSprinkles. Overcast.7 mph81%29.98 "Hg4 mi
10:00 PM41 °FOvercast.9 mph66%29.98 "HgN/A
9:30 PM41 °FOvercast.5 mph66%29.95 "HgN/A
9:00 PM41 °FMostly cloudy.5 mph66%29.95 "HgN/A
8:30 PM41 °FMostly cloudy.2 mph66%29.95 "HgN/A
8:00 PM41 °FMostly cloudy.5 mph66%29.95 "HgN/A
7:30 PM43 °FMostly cloudy.5 mph61%29.92 "HgN/A
7:00 PM45 °FMostly cloudy.5 mph53%29.95 "HgN/A
6:30 PM43 °FMostly cloudy.5 mph61%29.95 "HgN/A
6:00 PM45 °FMore clouds than sun.2 mph53%29.95 "HgN/A
5:30 PM45 °FBroken clouds.2 mph49%29.95 "HgN/A
5:00 PM46 °FPartly sunny.No wind46%29.95 "HgN/A
4:30 PM46 °FScattered clouds.No wind46%29.95 "HgN/A
4:00 PM48 °FScattered clouds.2 mph43%29.95 "HgN/A
3:30 PM50 °FSunny.5 mph40%29.98 "Hg10 mi
3:00 PM50 °FSunny.2 mph43%29.98 "Hg10 mi
2:30 PM50 °FSunny.5 mph43%30.01 "Hg10 mi
2:00 PM48 °FSunny.No wind46%30.01 "Hg10 mi
1:30 PM48 °FSunny.No wind43%30.01 "Hg10 mi
1:00 PM46 °FSunny.2 mph46%30.04 "Hg10 mi
12:30 PM45 °FSunny.No wind49%30.07 "Hg10 mi
12:00 PM45 °FSunny.No wind49%30.07 "Hg10 mi
11:30 AM45 °FSunny.No wind49%30.07 "Hg10 mi
11:00 AM43 °FSunny.5 mph57%30.07 "Hg10 mi
Weather by CustomWeather, © 2014

See weather overviewHow to use our weather pages